GFSSW_700_spd_282.txt.gz
Wind_Speed
7 8 8 8 9 9 9 7 6 6 5 4 3 5 7 8 10 7 5 3 7 9 7 11 12 11 11 14 14 10 12 9 7 5 5 9 9 9 8 7 15 16 11 13 17
5 6 7 7 7 8 7 7 6 6 5 5 4 6 9 10 10 6 4 8 10 8 13 10 13 12 11 16 14 12 10 9 6 5 9 9 7 10 8 5 11 12 18 15 14
4 4 5 6 6 6 6 6 6 5 5 5 5 9 12 13 11 7 7 12 16 21 12 13 7 9 15 17 14 11 11 8 4 6 9 8 7 7 10 6 5 12 19 17 16
4 4 4 5 5 5 5 5 5 5 5 6 7 10 14 14 8 9 13 12 13 16 15 11 9 9 17 14 13 10 5 10 6 6 8 8 5 6 6 6 13 10 16 16 16
4 4 4 4 4 5 5 5 5 5 6 7 9 12 16 13 11 11 16 16 16 16 17 12 7 15 19 16 13 8 5 11 7 5 3 4 5 4 5 6 14 17 17 19 15
4 4 4 4 4 4 4 4 5 5 6 8 11 15 16 13 14 14 17 15 14 14 14 13 15 14 15 14 9 7 11 11 8 5 5 2 1 1 6 5 9 17 17 16 15
4 3 4 4 4 4 4 5 5 6 6 8 14 17 17 14 14 18 19 14 11 10 10 10 12 17 16 9 8 11 9 9 8 8 7 7 7 3 2 3 7 14 16 14 16
4 3 3 4 4 3 3 5 6 6 7 9 14 18 16 14 14 19 22 16 11 10 8 8 6 5 11 7 6 6 6 10 14 10 7 8 4 5 1 3 7 11 16 19 19
5 4 3 3 3 3 5 7 8 8 7 10 14 16 13 10 16 21 23 19 13 12 13 10 7 6 9 7 5 4 3 12 12 10 9 9 3 7 6 6 7 10 14 17 20
5 5 3 3 3 3 5 8 10 9 9 11 15 13 12 13 19 23 27 24 18 11 14 11 9 8 7 10 9 6 8 5 11 14 14 11 9 2 6 5 6 8 13 16 17
7 6 4 5 5 5 5 7 9 10 13 17 17 10 11 11 19 24 28 27 22 14 16 12 11 8 5 11 10 10 10 12 7 8 13 9 8 5 5 6 6 8 9 12 15
8 8 7 7 9 7 5 5 7 8 14 14 14 11 11 12 16 24 26 23 22 16 16 16 13 4 10 10 7 7 10 6 8 10 10 10 9 6 6 3 3 4 7 11 14
9 10 10 10 13 12 10 8 7 4 12 14 12 14 12 10 10 14 21 24 21 18 14 16 11 4 6 11 8 6 10 10 6 9 11 6 12 13 12 11 12 11 7 9 10
10 10 12 12 13 15 16 12 11 6 5 9 17 14 15 14 11 9 12 14 12 11 13 14 10 8 8 10 8 8 8 5 4 11 7 14 4 9 16 16 16 16 16 12 13
11 10 12 14 15 16 15 13 11 3 2 4 16 13 15 16 7 14 15 13 11 8 12 10 8 8 9 6 5 4 7 5 3 5 6 6 7 6 13 20 19 21 18 15 15
13 9 12 14 16 17 15 13 9 3 6 6 15 17 19 15 9 11 17 14 10 8 8 10 9 7 7 8 8 7 8 8 11 10 4 2 10 4 5 17 22 24 27 22 17
13 10 11 13 17 18 16 13 7 7 4 7 16 16 20 17 15 13 14 13 13 10 12 10 9 6 5 6 8 8 9 2 2 1 5 3 3 3 8 12 19 20 28 28 19
14 11 10 13 16 20 18 16 9 6 5 5 16 19 21 18 18 17 15 14 14 11 15 12 7 6 4 2 6 9 14 7 5 4 3 3 3 5 8 3 8 10 16 28 24
14 10 8 9 15 21 22 22 8 6 9 8 11 15 20 20 16 18 16 11 12 11 7 9 9 13 11 1 3 7 7 8 4 5 3 3 2 3 3 3 5 6 17 23 22
10 7 5 6 12 18 26 25 14 11 9 7 5 12 19 24 23 16 16 15 13 9 10 8 9 14 7 3 2 6 8 4 5 4 2 3 4 3 5 7 6 11 16 18 24
6 2 2 3 8 14 27 25 20 14 8 2 6 3 12 18 25 18 16 12 12 9 11 12 10 10 7 3 6 5 3 2 4 4 6 3 2 5 11 13 12 13 14 13 11
5 3 3 6 7 4 14 23 28 26 23 17 15 12 8 15 21 28 20 16 17 16 11 11 6 8 10 9 6 6 6 4 3 5 5 5 5 9 16 17 16 17 16 15 13
7 7 5 5 4 4 5 9 12 17 25 30 28 19 7 6 15 24 23 21 19 16 13 10 7 9 7 4 5 5 3 5 6 7 8 7 8 14 19 20 19 18 18 15 12
11 7 7 6 6 7 10 12 10 9 10 20 24 21 19 16 17 24 27 22 19 14 12 10 13 11 10 7 9 6 5 6 8 8 13 10 24 24 24 25 23 20 18 17 16
8 12 10 7 4 7 7 4 8 10 12 12 16 21 18 15 22 27 29 26 19 16 14 10 7 8 11 13 11 10 6 4 5 5 8 14 27 29 26 26 25 24 23 22 21
7 8 10 6 5 4 2 10 11 10 13 16 16 20 17 13 22 27 31 29 23 16 10 6 11 12 9 7 5 7 9 8 7 8 9 9 28 26 25 22 19 18 17 16 16
6 11 12 9 5 1 3 9 4 4 3 13 17 26 14 14 12 22 21 18 12 8 10 10 11 9 5 7 5 7 9 10 9 8 12 21 26 30 25 21 18 17 16 18 20

GFSSW_700_spd_285.txt.gz
Wind_Speed
6 7 8 8 8 8 8 8 7 4 4 3 4 5 7 8 8 6 4 2 7 7 8 7 7 5 7 9 8 6 9 10 11 9 8 9 11 11 10 11 15 17 14 15 16
5 5 6 7 7 7 7 7 7 5 4 4 5 7 10 10 8 8 6 9 6 8 2 11 8 8 5 8 7 8 7 8 11 10 8 9 9 11 9 9 13 14 16 16 15
4 4 5 5 5 6 6 6 6 5 5 5 7 10 12 12 8 10 11 16 16 15 12 10 10 7 9 11 7 5 5 6 9 14 10 9 10 12 9 6 5 5 15 15 14
3 4 4 4 4 4 5 5 6 5 5 6 9 12 14 13 8 13 15 15 17 14 11 11 9 10 12 11 9 7 2 3 8 12 15 13 10 10 11 3 8 12 12 11 13
3 3 4 4 4 4 3 5 5 5 6 8 11 14 16 15 11 16 15 17 16 14 14 10 10 11 11 8 8 2 2 7 8 8 8 10 9 8 9 7 15 20 15 14 14
3 3 3 3 4 3 3 4 5 6 6 9 13 16 17 13 15 19 17 16 15 12 14 12 7 13 11 8 6 3 6 8 6 3 3 4 6 8 8 10 17 17 17 14 15
3 3 3 3 3 3 3 5 6 6 7 9 15 18 16 13 16 20 18 17 14 11 9 10 14 16 12 7 7 8 5 3 5 2 2 1 1 3 4 10 15 18 17 15 16
3 3 3 3 3 3 4 5 6 7 7 9 16 19 16 14 17 21 18 15 12 10 9 8 14 13 9 8 5 4 6 4 4 5 3 5 2 2 3 6 14 16 16 15 18
4 4 4 4 4 3 3 5 7 7 8 10 16 20 14 14 14 21 21 15 11 9 8 9 10 12 10 8 3 3 1 6 6 8 5 6 3 4 4 8 12 14 14 21 19
5 4 4 5 5 2 2 5 7 7 9 12 16 18 15 13 17 19 23 19 13 9 7 7 5 4 8 10 2 1 3 3 5 5 8 3 4 5 6 6 10 12 17 20 18
7 6 5 6 5 2 1 4 6 8 10 15 17 16 18 16 18 20 24 24 20 11 12 11 8 7 4 5 7 8 6 4 5 6 5 4 3 2 6 9 10 14 15 17 20
8 7 6 7 7 3 2 4 5 7 11 14 14 12 14 16 18 24 26 26 22 18 13 15 14 7 7 8 9 10 10 7 5 3 4 6 4 4 3 4 6 7 13 17 22
7 8 8 9 9 7 7 5 6 2 7 14 11 14 11 12 15 26 27 26 23 21 17 17 11 9 10 11 10 11 10 6 6 9 8 6 8 11 9 8 13 11 11 15 18
7 8 9 11 13 11 10 10 9 6 5 10 17 16 14 14 14 20 24 23 23 19 19 17 15 10 10 9 8 6 5 7 7 8 5 9 1 4 12 13 13 16 17 16 18
8 8 9 13 15 15 12 10 8 4 2 6 16 16 15 19 10 15 16 18 14 14 17 13 12 12 13 12 7 4 6 5 4 8 5 7 5 8 8 13 18 18 13 22 24
10 6 10 11 15 16 14 12 8 5 6 6 14 19 19 21 10 15 18 15 16 12 11 12 11 12 14 12 9 7 8 6 6 7 7 7 8 5 9 13 15 21 23 19 24
12 8 9 10 13 16 16 13 7 7 5 6 14 17 18 19 16 10 19 19 14 10 10 11 11 9 12 11 10 9 7 4 5 6 7 10 7 7 8 15 18 21 24 26 19
11 10 7 8 12 16 17 17 9 6 8 9 14 19 19 19 20 17 14 19 17 12 10 13 11 11 8 10 9 10 10 8 6 6 3 4 5 4 8 9 13 13 17 24 24
13 9 7 6 10 16 20 19 6 7 9 8 13 16 19 22 15 20 19 17 14 15 12 15 9 14 11 8 8 6 9 13 9 3 3 3 3 5 6 4 3 8 18 21 30
9 7 5 5 9 16 23 21 12 8 6 8 4 11 18 22 19 21 18 16 13 16 14 11 11 14 12 8 7 8 9 4 6 6 6 4 3 5 5 7 5 5 13 19 26
6 1 2 3 7 13 26 23 18 14 9 8 6 2 4 15 24 21 13 12 17 15 15 12 10 13 11 8 10 9 10 7 6 4 3 4 4 11 8 10 7 9 14 19 23
2 1 1 3 5 10 17 16 20 20 18 14 10 7 4 6 12 23 19 16 18 15 17 15 10 12 10 7 10 11 10 10 8 6 6 3 4 15 13 14 10 11 14 16 18
2 4 5 4 4 5 6 9 15 22 21 27 23 16 11 5 5 17 20 20 18 17 14 16 12 11 5 5 7 8 10 11 11 8 9 6 4 17 16 15 15 13 14 14 13
5 6 8 7 5 5 7 9 10 10 13 16 24 24 20 17 9 11 22 22 18 19 18 17 13 12 12 8 9 9 10 9 12 7 8 11 11 23 21 20 20 19 18 17 16
5 10 8 5 5 4 6 5 9 13 15 15 21 26 22 19 15 18 21 24 24 22 19 17 16 12 11 10 11 12 12 8 7 9 9 10 15 26 27 24 23 21 19 18 17
5 7 11 9 6 6 5 11 18 14 15 17 21 13 24 20 19 23 24 27 29 24 19 14 10 11 8 8 7 7 8 8 8 8 9 9 13 27 29 27 25 23 21 19 19
6 8 11 10 7 2 4 6 7 5 9 10 18 15 21 18 17 20 27 25 23 21 15 10 10 9 4 8 7 7 11 12 13 11 11 12 16 24 31 28 24 21 20 19 20

GFSSW_700_spd_291.txt.gz
Wind_Speed
6 7 8 8 8 8 7 7 6 3 3 3 4 3 5 6 6 4 4 8 8 10 10 12 11 12 12 14 12 9 7 13 12 11 12 13 13 12 13 17 13 7 16 24 24
4 5 6 7 7 7 7 6 6 4 3 4 6 5 6 8 8 7 1 9 13 11 14 12 12 14 8 11 4 7 14 12 11 13 14 12 11 17 14 14 16 20 19 19 20
3 3 4 5 5 5 6 5 5 5 4 6 7 6 8 10 11 5 8 11 10 13 15 13 13 16 9 6 6 12 15 11 11 12 13 13 13 14 12 13 14 19 15 17 17
2 3 3 4 4 4 5 5 5 5 5 7 8 9 11 12 3 11 9 11 12 17 16 13 11 8 10 5 7 14 11 12 13 12 12 11 16 14 7 12 14 14 12 15 17
3 3 3 3 4 3 3 4 5 5 6 8 10 11 14 9 6 9 11 13 15 18 8 6 6 8 5 7 5 14 11 12 13 13 11 14 14 7 13 14 18 15 15 15 14
3 3 3 3 4 2 2 3 5 6 7 9 10 12 14 5 7 11 12 12 15 14 4 6 8 5 6 6 5 12 13 12 13 10 11 11 10 6 14 16 18 16 16 15 13
3 3 3 3 3 3 2 3 5 7 8 10 11 13 13 12 10 13 10 11 11 13 4 4 8 3 7 7 9 12 13 13 11 12 9 10 10 10 16 17 17 15 14 14 14
3 3 3 2 3 2 1 3 5 7 9 11 12 15 4 11 14 13 11 7 6 9 5 7 16 10 4 6 11 17 14 18 14 10 9 12 11 12 16 17 16 14 13 12 12
3 4 3 2 1 1 1 4 6 7 8 11 13 14 6 12 15 15 12 4 3 5 7 10 12 8 4 9 12 14 9 16 13 10 10 8 12 13 16 15 15 13 12 12 12
3 4 4 2 1 1 3 4 6 6 8 11 13 14 10 12 13 19 16 11 6 5 4 11 6 3 5 6 6 2 13 8 12 14 9 9 9 15 17 14 14 13 12 12 12
5 5 5 3 2 2 5 9 5 1 9 7 8 6 8 14 15 18 18 12 7 7 6 8 8 13 14 7 4 1 5 5 12 11 14 12 13 15 17 16 15 14 13 13 12
5 6 7 5 5 4 5 5 12 12 9 12 13 17 12 11 12 14 18 15 12 9 8 8 10 10 6 6 3 5 5 5 5 11 15 16 17 15 16 15 15 15 13 14 15
6 6 7 7 7 7 5 6 8 7 6 13 13 13 11 11 14 16 19 18 14 14 13 15 2 3 7 7 8 9 10 6 4 10 11 13 16 18 16 14 14 15 15 15 16
6 7 7 7 9 8 8 8 7 4 3 13 14 14 15 10 14 16 19 17 17 17 17 18 10 9 12 12 10 16 12 6 7 12 3 7 4 2 18 16 14 16 16 17 16
5 5 6 8 7 10 12 9 7 6 6 9 10 12 11 14 6 14 18 20 19 17 16 19 18 10 14 11 13 1 8 10 11 14 14 9 17 6 29 17 16 14 16 17 17
6 6 5 6 10 11 10 8 7 5 5 4 13 14 16 18 12 10 16 19 16 18 19 23 10 19 14 13 9 7 6 9 10 14 21 12 14 12 15 17 16 14 16 18 19
6 5 5 6 9 10 11 9 7 12 3 8 8 11 17 17 19 15 15 19 21 18 21 20 19 13 14 14 13 13 15 14 13 13 13 9 8 12 16 13 12 12 15 18 21
8 8 6 6 8 10 12 9 13 7 9 5 5 10 17 19 19 17 16 19 20 20 18 22 20 21 19 21 17 21 21 22 12 12 10 10 11 12 11 12 12 13 14 17 16
8 7 6 6 8 11 12 15 14 15 9 8 9 11 15 19 19 21 19 21 21 22 20 16 24 15 17 19 18 17 24 22 22 21 15 14 8 6 9 5 8 6 11 16 21
7 3 4 5 8 12 11 18 8 10 6 8 11 9 14 18 20 20 22 17 20 21 21 18 15 15 14 14 18 24 12 20 19 16 17 19 14 14 15 9 8 12 17 26 31
4 3 7 2 7 11 13 13 14 11 7 8 10 14 13 17 19 23 20 21 18 16 18 19 15 15 13 18 21 16 25 23 22 20 11 10 3 9 12 11 11 17 25 37 40
3 1 11 4 3 6 11 12 13 11 9 10 9 9 12 11 21 18 24 21 20 20 16 20 18 23 19 14 17 15 13 19 29 21 23 20 3 8 10 10 12 13 20 30 35
1 5 5 7 3 7 10 10 12 11 13 12 14 13 13 15 13 19 22 8 13 13 15 15 18 23 12 11 14 21 21 21 20 20 21 12 7 9 13 7 9 15 17 24 25
3 2 5 5 7 6 6 7 9 9 11 14 16 16 18 19 16 13 21 10 11 13 18 13 17 21 13 14 16 19 18 13 16 17 17 20 12 13 12 6 9 14 16 21 24
1 5 10 1 6 6 6 6 6 8 10 11 13 17 19 21 21 20 17 15 15 19 16 17 18 16 1 6 8 6 12 10 11 13 18 22 16 14 15 8 8 14 14 15 18
6 5 6 7 8 6 6 3 7 9 11 13 15 16 15 21 22 17 20 16 15 17 16 19 16 8 8 6 6 9 9 11 12 13 15 17 18 6 12 10 10 12 13 14 15
7 7 7 5 6 5 4 5 5 7 7 9 12 13 15 14 20 14 9 13 11 14 18 16 17 13 16 7 8 13 14 14 11 11 13 14 11 12 14 14 14 14 14 13 13

GFSSW_700_spd_297.txt.gz
Wind_Speed
5 6 7 7 7 6 6 6 4 2 2 1 2 6 7 7 9 9 10 7 11 10 13 13 11 12 8 10 15 10 14 10 21 19 15 21 18 10 9 10 10 7 12 18 22
4 4 5 6 6 5 5 5 4 3 1 1 4 6 8 6 6 7 8 11 12 14 14 14 13 6 10 7 4 7 8 16 16 17 21 13 8 24 20 20 20 13 15 19 18
4 4 3 4 4 4 4 5 4 3 3 3 6 8 7 4 2 2 8 14 14 16 15 19 4 3 8 6 6 3 9 14 14 15 17 11 19 22 18 17 17 14 19 21 17
3 3 3 3 3 3 3 4 4 4 4 5 8 11 8 3 3 6 4 13 16 19 16 13 10 12 10 13 6 11 16 15 14 11 10 19 21 16 11 11 10 15 18 18 18
3 3 3 3 2 3 2 3 5 5 5 7 12 12 8 4 6 9 4 14 21 16 11 11 7 13 8 1 9 16 13 16 18 18 13 17 7 21 16 13 9 15 16 15 13
3 2 2 2 2 2 2 3 5 5 6 9 14 12 4 2 6 7 6 18 21 14 9 3 5 9 4 8 7 8 18 15 11 13 16 17 15 15 14 12 10 16 14 11 8
4 2 2 2 1 1 2 3 5 6 7 9 14 13 5 2 3 5 10 18 20 17 4 15 13 11 9 7 3 11 12 11 9 16 7 12 12 13 16 14 14 17 14 8 12
4 3 2 1 1 1 1 3 5 6 7 9 14 16 1 4 1 9 11 14 12 14 17 10 4 2 8 10 3 7 17 16 10 12 18 9 19 15 15 15 17 17 16 17 12
5 3 2 1 2 2 3 3 4 5 7 10 14 17 1 6 1 8 14 14 14 11 11 8 5 4 3 6 6 2 13 16 16 17 16 11 18 16 16 12 17 16 17 19 18
6 3 1 0 2 3 7 6 6 3 6 10 10 9 9 5 7 6 9 9 9 9 7 3 9 11 12 11 15 7 21 16 17 15 14 18 21 18 15 16 16 18 15 18 16
6 4 2 1 2 6 11 12 7 3 4 6 9 3 10 4 5 9 7 7 8 11 11 4 14 14 11 5 4 17 9 14 19 20 15 17 20 15 16 19 18 16 11 18 13
6 5 3 2 3 7 11 7 4 1 7 15 9 9 7 7 9 9 7 12 10 10 10 12 17 12 7 6 4 14 12 9 6 14 10 23 19 22 22 21 21 18 13 16 16
5 3 3 3 4 6 9 6 3 8 8 15 13 14 11 11 11 8 14 15 14 12 8 15 17 11 7 11 10 18 18 17 12 25 13 26 14 20 23 26 24 18 13 19 14
6 4 3 4 5 3 3 2 2 2 8 6 11 11 15 16 11 17 16 13 15 17 16 19 9 5 8 10 14 20 14 18 20 25 21 24 12 23 19 25 29 23 21 18 16
6 5 4 5 7 11 10 8 4 1 4 5 6 4 8 20 7 2 17 16 15 16 16 17 15 15 10 7 12 9 7 17 25 22 18 22 8 15 25 33 32 26 24 21 19
7 5 4 5 9 10 3 9 8 0 6 8 12 11 10 13 12 5 12 15 15 17 17 20 21 19 12 12 10 9 8 8 12 12 11 28 24 23 20 36 34 29 27 21 23
7 6 5 6 9 9 9 13 4 5 4 9 11 9 10 14 12 11 13 12 13 14 18 19 21 16 18 17 20 8 10 13 8 10 12 3 11 4 15 30 33 32 31 25 28
6 6 5 6 5 6 14 13 5 6 8 4 7 8 11 9 14 16 16 13 12 16 22 22 22 17 20 26 17 18 14 15 4 3 14 20 15 8 15 19 36 31 32 22 28
6 6 4 5 5 8 17 11 7 2 11 6 2 5 11 9 12 18 18 23 13 19 18 18 27 18 19 27 22 13 21 16 21 24 16 4 13 17 21 26 30 25 24 31 22
3 1 3 3 2 10 16 14 13 8 10 5 1 5 11 11 14 17 20 21 24 15 18 20 20 21 17 14 11 12 13 17 14 3 4 9 20 22 24 25 28 29 35 37 31
6 7 2 10 6 10 12 9 5 10 7 8 7 11 14 17 16 15 11 18 17 15 16 20 24 27 22 15 15 10 15 19 15 16 2 2 4 22 33 30 34 27 26 33 39
10 9 8 16 3 3 1 2 5 6 5 6 5 10 10 14 18 16 14 9 11 10 21 15 20 11 17 21 16 19 19 19 14 14 20 20 8 20 29 26 25 21 21 24 29
6 8 6 6 5 5 14 17 13 12 12 7 9 8 9 13 16 15 16 16 10 17 11 17 10 6 19 21 10 17 15 15 19 22 17 7 12 17 17 18 16 16 14 17 22
10 8 6 8 2 6 8 6 5 8 7 8 13 12 12 13 12 17 17 18 9 18 14 8 9 11 11 11 15 11 7 17 19 20 13 8 19 18 12 13 6 9 10 9 12
11 2 6 5 1 6 5 6 4 3 6 1 5 8 12 15 15 16 16 17 15 16 16 12 9 13 17 14 14 11 9 19 9 17 7 14 7 12 12 15 8 7 4 7 13
12 11 10 12 0 7 4 4 7 8 7 10 11 13 14 14 14 17 15 16 19 22 7 12 14 12 23 16 11 9 14 9 5 3 8 10 16 16 10 9 9 10 6 8 10
8 9 12 10 4 6 8 3 3 5 8 10 13 14 14 12 13 14 15 19 16 12 11 16 16 17 15 7 7 3 16 18 7 13 15 10 10 7 9 10 12 12 12 15 9